This demonstration page uses our WeatherBlox Daily Observations layout. Learn more.

Left ArrowRight Arrow

39.92423, -83.80882

Hourly Observations for August 9, 2022

Temp ( °F °C ) Dew Point ( °F °C ) Humidity (%) Winds ( mph kmh ) Pressure ( in mb ) Visibility ( mi km ) Precip ( " mm )
12:47 am 00:47 Cloudy with Nearby Thunderstorms 77 25 N/A N/A SSW 3 6 29.98 1015 10 16 0.00 0.00
12:56 am 00:56 Cloudy with Thunderstorms 77 25 N/A N/A SW 7 11 30.00 1016 10 16 0.01 0.13
1:05 am 01:05 Cloudy with Strong Thunderstorms 75 24 N/A N/A WSW 10 17 29.99 1015 7 11 0.05 1.27
1:41 am 01:41 Mostly Cloudy with Light Rain N/A N/A N/A WSW 3 6 30.07 1018 8 13 0.22 5.59
1:56 am 01:56 Partly Cloudy with Light Rain N/A N/A N/A SW 7 11 30.07 1018 10 16 0.22 5.59
2:56 am 02:56 Partly Cloudy N/A N/A N/A SW 3 6 30.06 1018 8 13 0.01 0.25
3:26 am 03:26 Mostly Cloudy N/A N/A N/A WSW 9 15 30.07 1018 9 14 0.00 0.00
3:56 am 03:56 Cloudy N/A N/A N/A SW 5 7 30.07 1018 9 14 0.00 0.00
4:12 am 04:12 Mostly Cloudy N/A N/A N/A SW 5 7 30.07 1018 7 11 0.00 0.00
4:35 am 04:35 Mostly Cloudy N/A N/A N/A NW 5 7 30.06 1018 8 13 0.00 0.00
4:47 am 04:47 Mostly Cloudy N/A N/A N/A NW 3 6 30.06 1018 10 16 0.00 0.00
4:56 am 04:56 Mostly Cloudy N/A N/A N/A Calm 30.06 1018 9 14 0.00 0.00
6:02 am 06:02 Mostly Cloudy with Mist and Fog N/A N/A N/A SW 6 9 30.07 1018 2 3 0.00 0.00
6:18 am 06:18 Cloudy with Mist and Fog N/A N/A N/A SW 6 9 30.07 1018 3 5 0.00 0.00
6:48 am 06:48 Hazy N/A N/A N/A SW 6 9 30.08 1019 4 6 0.00 0.00
6:56 am 06:56 Mostly Cloudy with Haze N/A N/A N/A SW 6 9 30.08 1019 4 6 0.00 0.00
7:27 am 07:27 Hazy N/A N/A N/A SW 6 9 30.10 1019 4 6 0.00 0.00
7:56 am 07:56 Hazy N/A N/A N/A SW 6 9 30.10 1019 6 10 0.00 0.00
8:37 am 08:37 Mostly Cloudy 73 23 N/A N/A WSW 8 13 30.02 1017 9 14 0.00 0.00
8:56 am 08:56 Mostly Cloudy 74 23.3 N/A N/A W 8 13 30.05 1018 10 16 0.00 0.00
9:38 am 09:38 Mostly Cloudy 77 25 77 25 100 100 W 7 11 30.02 1017 10 16 0.00 0.00
9:52 am 09:52 Mostly Cloudy 77 25 77 25 100 100 WSW 8 13 30.02 1017 10 16 0.00 0.00
9:56 am 09:56 Mostly Cloudy 77 25 77 25 100 100 W 8 13 30.04 1017 10 16 0.00 0.00
10:56 am 10:56 Cloudy 78 25.6 77 25 96 96 W 7 11 30.05 1018 10 16 0.00 0.00
11:22 am 11:22 Cloudy 79 26 79 26 100 100 W 7 11 30.02 1017 10 16 0.00 0.00
11:44 am 11:44 Cloudy 81 27 79 26 94 94 VRB 6 9 30.03 1017 10 16 0.00 0.00
11:56 am 11:56 Cloudy 80 26.7 78 25.6 94 94 VRB 7 11 30.05 1018 10 16 0.00 0.00
12:08 pm 12:08 Cloudy 81 27 75 24 84 84 WNW 6 9 30.02 1016 10 16 0.00 0.00
12:56 pm 12:56 Mostly Cloudy 82 27.8 77 25 85 85 NW 10 17 30.05 1018 10 16 0.00 0.00
1:09 pm 13:09 Cloudy 82 28 75 24 79 79 N 10 17 30.01 1016 10 16 0.00 0.00
1:16 pm 13:16 Cloudy 81 27 75 24 84 84 NW 9 15 30.02 1016 10 16 0.00 0.00
1:56 pm 13:56 Cloudy 81 27.2 74 23.3 79 79 NW 8 13 30.02 1016 10 16 0.00 0.00
2:03 pm 14:03 Cloudy 81 27 73 23 79 79 NW 9 15 30.02 1016 10 16 0.00 0.00
2:56 pm 14:56 Cloudy with Light Rain 78 25.6 78 25.6 100 100 NNW 12 19 30.01 1016 10 16 0.01 0.25
3:39 pm 15:39 Mostly Cloudy 81 27 75 24 84 84 NE 5 7 29.99 1015 10 16 0.01 0.13
3:53 pm 15:53 Partly Cloudy 79 26 75 24 89 89 Calm 29.99 1016 10 16 0.01 0.13
3:56 pm 15:56 Mostly Sunny 80 26.7 75 23.9 85 85 S 3 6 29.99 1016 10 16 0.01 0.13
4:56 pm 16:56 Mostly Sunny 81 27.2 75 23.9 82 82 WSW 3 6 29.97 1015 10 16 0.00 0.00
5:27 pm 17:27 Mostly Cloudy 81 27 77 25 89 89 W 5 7 29.99 1015 10 16 0.00 0.00
5:56 pm 17:56 Mostly Cloudy 81 27.2 77 25 88 88 NW 8 13 30.00 1016 10 16 0.00 0.00
6:37 pm 18:37 Partly Cloudy 79 26 77 25 94 94 NNW 8 13 30.00 1016 10 16 0.00 0.00
6:56 pm 18:56 Partly Cloudy 80 26.7 77 25 90 90 N 8 13 30.00 1016 10 16 0.00 0.00
7:26 pm 19:26 Mostly Cloudy 79 26 79 26 100 100 N 8 13 29.99 1016 10 16 0.00 0.00
7:33 pm 19:33 Mostly Cloudy 77 25 77 25 100 100 NNE 7 11 30.00 1016 10 16 0.00 0.00
7:43 pm 19:43 Mostly Cloudy 77 25 77 25 100 100 N 9 15 30.00 1016 10 16 0.00 0.00
7:56 pm 19:56 Mostly Cloudy 76 24.4 76 24.4 100 100 N 8 13 30.01 1016 10 16 0.00 0.00
8:56 pm 20:56 Cloudy 74 23.3 N/A N/A NNE 8 13 30.05 1018 10 16 0.00 0.00
9:56 pm 21:56 Cloudy 73 22.8 N/A N/A NNE 7 11 30.07 1018 10 16 0.00 0.00
10:56 pm 22:56 Cloudy 71 21.7 N/A N/A NE 7 11 30.09 1019 10 16 0.00 0.00
11:56 pm 23:56 Cloudy 71 21.7 N/A N/A ENE 6 9 30.09 1019 10 16 0.00 0.00

Powered by AerisWeather